South Bend, IN

5:22 AM EDT on April 27, 2018 (GMT -0400)
South Bend Regional

Weather History for KSBN - November, 2011

Change the Weather History Date:

Friday, November 4, 2011

  Actual Average Record
Temperature  
Mean Temperature 42 °F 46 °F  
Max Temperature 55 °F 54 °F 75 °F (2015)
Min Temperature 28 °F 37 °F 13 °F (1951)
Degree Days  
Heating Degree Days 23 19  
Month to date heating degree days 65 75  
Since 1 July heating degree days 594 616  
Cooling Degree Days 0 0  
Month to date cooling degree days 0 0  
Year to date cooling degree days 969 773  
Moisture  
Dew Point 30 °F    
Average Humidity 65    
Maximum Humidity 92    
Minimum Humidity 38    
Precipitation  
Precipitation 0.00 in 0.10 in 1.50 in (1935)
Month to date precipitation T 0.42  
Year to date precipitation 40.40 32.54  
Snow  
Snow 0.00 in 0.10 in 7.20 in (1976)
Month to date snowfall 0.0 0.3  
Since 1 July snowfall T 0.7  
Since 1 September snowfall 0.7  
Snow Depth 0.00 in    
Sea Level Pressure  
Sea Level Pressure 30.28 in    
Wind  
Wind Speed 5 mph (NE)    
Max Wind Speed 13 mph    
Max Gust Speed 16 mph    
Visibility 10 miles    
Events      
T = Trace of Precipitation, MM = Missing Value Source: NWS Daily Summary

Daily Weather History Graph

Daily Weather History Graph

Search for Another Location

Airport or City:

Astronomy

Nov. 04, 2011 Rise Set
Actual Time 8:20 AM EDT 6:36 PM EDT
Civil Twilight 7:51 AM EDT 7:05 PM EDT
Nautical Twilight 7:18 AM EDT 7:38 PM EDT
Astronomical Twilight 6:46 AM EDT 8:10 PM EDT
Moon 3:31 PM EDT (11/4) 2:27 AM EDT (11/4)
Length of Visible Light 11h 13m
Length of Day
10h 15m
Waxing Gibbous, 69% of the Moon is Illuminated
Nov 4
Waxing Gibbous
Nov 10
Full
Nov 18
Last Quarter
Nov 25
New
Dec 2
First Quarter

Hourly Weather History & Observations

Time (EDT) Temp. Windchill Dew Point Humidity Pressure Visibility Wind Dir Wind Speed Gust Speed Precip Events Conditions
12:54 AM 42.1 °F 36.1 °F 33.1 °F 70% 30.18 in 10.0 mi NNE 10.4 mph - N/A   Clear
1:54 AM 41.0 °F 35.8 °F 33.1 °F 73% 30.18 in 10.0 mi NNE 8.1 mph - N/A   Clear
2:54 AM 39.0 °F 34.0 °F 33.1 °F 79% 30.19 in 10.0 mi NNE 6.9 mph - N/A   Clear
3:54 AM 37.9 °F 35.5 °F 32.0 °F 79% 30.21 in 10.0 mi NE 3.5 mph - N/A   Clear
4:54 AM 33.1 °F 28.7 °F 30.0 °F 89% 30.23 in 10.0 mi NNE 4.6 mph - N/A   Clear
5:54 AM 35.1 °F - 30.9 °F 85% 30.23 in 10.0 mi Calm Calm - N/A   Clear
6:54 AM 28.0 °F 22.8 °F 25.0 °F 88% 30.26 in 10.0 mi NNW 4.6 mph - N/A   Clear
7:54 AM 28.9 °F 22.8 °F 27.0 °F 92% 30.27 in 10.0 mi North 5.8 mph - N/A   Clear
8:54 AM 33.1 °F 27.7 °F 30.0 °F 89% 30.29 in 10.0 mi NNE 5.8 mph - N/A   Clear
9:54 AM 37.9 °F 33.5 °F 32.0 °F 79% 30.31 in 10.0 mi NNE 5.8 mph - N/A   Clear
10:54 AM 42.1 °F 39.2 °F 34.0 °F 73% 30.32 in 10.0 mi NE 4.6 mph - N/A   Clear
11:54 AM 46.9 °F - 34.0 °F 61% 30.34 in 10.0 mi East 9.2 mph - N/A   Clear
12:54 PM 48.9 °F - 32.0 °F 52% 30.34 in 10.0 mi ESE 11.5 mph - N/A   Clear
1:54 PM 52.0 °F - 32.0 °F 47% 30.32 in 10.0 mi East 9.2 mph - N/A   Clear
2:54 PM 53.1 °F - 30.9 °F 43% 30.31 in 10.0 mi Variable 5.8 mph - N/A   Clear
3:54 PM 54.0 °F - 30.0 °F 40% 30.30 in 10.0 mi East 5.8 mph - N/A   Clear
4:54 PM 55.0 °F - 30.0 °F 38% 30.30 in 10.0 mi Calm Calm - N/A   Clear
5:54 PM 53.1 °F - 30.0 °F 41% 30.30 in 10.0 mi ENE 5.8 mph - N/A   Clear
6:54 PM 50.0 °F - 28.9 °F 44% 30.31 in 10.0 mi East 4.6 mph - N/A   Clear
7:54 PM 46.9 °F - 28.0 °F 48% 30.32 in 10.0 mi East 4.6 mph - N/A   Clear
8:54 PM 45.0 °F 42.6 °F 28.0 °F 52% 30.32 in 10.0 mi East 4.6 mph - N/A   Clear
9:54 PM 37.0 °F - 28.0 °F 70% 30.33 in 10.0 mi Calm Calm - N/A   Clear
10:54 PM 41.0 °F - 28.0 °F 60% 30.33 in 10.0 mi Calm Calm - N/A   Clear
11:54 PM 37.0 °F - 27.0 °F 67% 30.32 in 10.0 mi Calm Calm - N/A   Clear